GW3468 Weather Reports


time (UTC)temp
C
wind
direction
speed
KPH
gust
KPH
rain 1hr
cm
rain 24hr
cm
rain mn
cm
humidity
%
barometer
mb
20260503223534 18 252 4.8 9.7 0.00 0.00 0.00 35 1016.5
20260503223032 18 233 3.2 9.7 0.00 0.00 0.00 35 1016.5
20260503222530 18 242 4.8 11.3 0.00 0.00 0.00 35 1016.7
20260503222028 19 240 4.8 16.1 0.00 0.00 0.00 35 1016.7
20260503221527 19 238 1.6 6.4 0.00 0.00 0.00 35 1016.6
20260503221025 18 240 3.2 11.3 0.00 0.00 0.00 36 1016.8
20260503220544 18 267 6.4 11.3 0.00 0.00 0.00 34 1016.8
20260503220022 18 255 4.8 12.9 0.00 0.00 0.00 35 1016.8
20260503215520 19 241 4.8 14.5 0.00 0.00 0.00 34 1016.9
20260503215018 19 215 1.6 4.8 0.00 0.00 0.00 34 1016.9
20260503214516 19 248 3.2 12.9 0.00 0.00 0.00 34 1016.9
20260503214034 19 256 1.6 4.8 0.00 0.00 0.00 32 1016.9
20260503213533 19 255 1.6 6.4 0.00 0.00 0.00 32 1016.9
20260503213031 19 237 3.2 9.7 0.00 0.00 0.00 34 1017.1
20260503212529 18 249 3.2 9.7 0.00 0.00 0.00 34 1017.1
20260503212028 18 8 3.2 6.4 0.00 0.00 0.00 33 1017.1
20260503211527 18 237 4.8 11.3 0.00 0.00 0.00 34 1017.3
20260503211024 18 245 3.2 11.3 0.00 0.00 0.00 34 1017.2
20260503210523 18 302 3.2 12.9 0.00 0.00 0.00 34 1017.2
20260503210041 19 340 3.2 9.7 0.00 0.00 0.00 32 1017.4
20260503205519 19 222 3.2 11.3 0.00 0.00 0.00 33 1017.3
20260503205018 19 251 3.2 6.4 0.00 0.00 0.00 33 1017.5
20260503204516 18 282 3.2 11.3 0.00 0.00 0.00 33 1017.5
20260503204034 18 239 3.2 9.7 0.00 0.00 0.00 34 1017.7
20260503203532 19 240 3.2 6.4 0.00 0.00 0.00 33 1017.7
20260503203031 19 187 1.6 6.4 0.00 0.00 0.00 34 1017.7
20260503202529 18 201 1.6 4.8 0.00 0.00 0.00 36 1017.8
20260503202028 18 238 3.2 14.5 0.00 0.00 0.00 36 1018.0
20260503201526 19 245 4.8 9.7 0.00 0.00 0.00 34 1018.0
20260503201024 19 206 1.6 4.8 0.00 0.00 0.00 34 1018.2
20260503200522 18 231 3.2 4.8 0.00 0.00 0.00 34 1018.3
20260503200021 18 236 3.2 12.9 0.00 0.00 0.00 34 1018.3
20260503195519 17 248 1.6 6.4 0.00 0.00 0.00 35 1018.4
20260503195017 18 261 6.4 12.9 0.00 0.00 0.00 34 1018.4
20260503194516 18 237 3.2 9.7 0.00 0.00 0.00 34 1018.4
20260503194034 18 209 1.6 4.8 0.00 0.00 0.00 34 1018.6
20260503193532 18 292 1.6 4.8 0.00 0.00 0.00 34 1018.7
20260503193111 18 224 3.2 9.7 0.00 0.00 0.00 34 1018.7
20260503192529 18 237 1.6 4.8 0.00 0.00 0.00 34 1018.7
20260503192027 17 234 4.8 9.7 0.00 0.00 0.00 35 1018.9
20260503191525 18 248 4.8 11.3 0.00 0.00 0.00 34 1019.0
20260503191024 18 209 1.6 6.4 0.00 0.00 0.00 36 1019.1
20260503190522 18 227 1.6 4.8 0.00 0.00 0.00 34 1019.1
20260503190021 17 253 3.2 6.4 0.00 0.00 0.00 36 1019.1
20260503185519 17 269 4.8 12.9 0.00 0.00 0.00 35 1019.1
20260503185037 16 307 3.2 11.3 0.00 0.00 0.00 35 1019.3
20260503184515 17 264 4.8 12.9 0.00 0.00 0.00 35 1019.3
20260503184034 17 226 3.2 6.4 0.00 0.00 0.00 35 1019.2
20260503183532 17 142 1.6 4.8 0.00 0.00 0.00 36 1019.3
20260503183031 18 176 1.6 4.8 0.00 0.00 0.00 35 1019.3
20260503182529 17 160 1.6 4.8 0.00 0.00 0.00 37 1019.4
20260503182027 17 189 3.2 9.7 0.00 0.00 0.00 36 1019.6
20260503181525 16 228 3.2 9.7 0.00 0.00 0.00 37 1019.6
20260503181023 16 206 3.2 11.3 0.00 0.00 0.00 36 1019.7
20260503180522 16 239 3.2 6.4 0.00 0.00 0.00 37 1019.7
20260503180020 17 197 1.6 4.8 0.00 0.00 0.00 36 1019.9
20260503175558 17 175 3.2 6.4 0.00 0.00 0.00 37 1019.9
20260503175016 16 242 1.6 6.4 0.00 0.00 0.00 36 1019.9
20260503174535 16 182 3.2 11.3 0.00 0.00 0.00 35 1020.0
20260503174053 17 230 3.2 6.4 0.00 0.00 0.00 36 1020.0
20260503173531 17 167 1.6 6.4 0.00 0.00 0.00 35 1020.1
20260503173030 16 181 1.6 4.8 0.00 0.00 0.00 35 1020.1
20260503172528 15 176 3.2 6.4 0.00 0.00 0.00 35 1020.2
20260503172046 16 240 3.2 9.7 0.00 0.00 0.00 35 1020.4
20260503171524 16 165 3.2 11.3 0.00 0.00 0.00 35 1020.4
20260503171022 16 174 3.2 6.4 0.00 0.00 0.00 35 1020.4
20260503170541 16 186 3.2 6.4 0.00 0.00 0.00 35 1020.6
20260503150520 13 56 3.2 9.7 0.00 0.00 0.00 39 1021.5
20260503131020 11 119 1.6 3.2 0.00 0.00 0.00 55 1021.3
20260503130519 10 93 0.0 3.2 0.00 0.00 0.00 57 1021.4
20260503110517 3 0.0 0.0 0.00 0.00 0.00 84 1020.0
20260503081519 6 0.0 0.0 0.00 0.00 0.00 76 1018.7
20260503081017 6 0.0 0.0 0.00 0.00 0.00 76 1018.7
20260503080515 6 0.0 0.0 0.00 0.00 0.00 75 1018.7
20260503072522 7 125 0.0 1.6 0.00 0.00 0.00 71 1018.2
20260503072020 7 137 0.0 1.6 0.00 0.00 0.00 72 1018.2
20260503071518 7 143 0.0 1.6 0.00 0.00 0.00 72 1018.2
20260503071016 7 131 0.0 3.2 0.00 0.00 0.00 72 1018.1
20260503070535 6 129 0.0 1.6 0.00 0.00 0.00 72 1018.2
20260503055030 9 0.0 0.0 0.00 0.00 0.00 62 1018.0
20260503054548 9 136 1.6 1.6 0.00 0.00 0.00 62 1017.9
20260503054106 9 95 1.6 3.2 0.00 0.00 0.00 62 1017.8
20260503053524 10 107 0.0 3.2 0.00 0.00 0.00 62 1017.8
20260503053022 9 71 1.6 3.2 0.00 0.00 0.00 62 1017.7
20260503052521 10 136 0.0 1.6 0.00 0.00 0.00 62 1017.8
20260503052039 10 46 1.6 9.7 0.00 0.00 0.00 61 1017.8
20260503051538 9 89 1.6 4.8 0.00 0.00 0.00 62 1017.8
20260503051036 9 137 0.0 1.6 0.00 0.00 0.00 63 1017.7
20260503050534 9 134 0.0 3.2 0.00 0.00 0.00 63 1017.8
20260503050032 9 21 1.6 3.2 0.00 0.00 0.00 65 1017.8
20260503045530 9 0.0 0.0 0.00 0.00 0.00 65 1017.8
20260503045028 9 200 0.0 1.6 0.00 0.00 0.00 65 1017.8
20260503044527 9 0.0 0.0 0.00 0.00 0.00 64 1017.7
20260503044045 9 0.0 0.0 0.00 0.00 0.00 63 1017.6
20260503043523 9 148 0.0 1.6 0.00 0.00 0.00 63 1017.7
20260503043022 9 145 0.0 1.6 0.00 0.00 0.00 63 1017.7
20260503042640 9 0.0 0.0 0.00 0.00 0.00 63 1017.6
20260503042018 9 0.0 0.0 0.00 0.00 0.00 62 1017.7
20260503041536 10 0.0 0.0 0.00 0.00 0.00 61 1017.5
20260503040533 10 143 1.6 4.8 0.00 0.00 0.00 59 1017.4
20260503040031 10 117 1.6 4.8 0.00 0.00 0.00 59 1017.4
20260503035529 10 77 1.6 4.8 0.00 0.00 0.00 58 1017.4
20260503035028 11 19 3.2 9.7 0.00 0.00 0.00 57 1017.5
20260503034546 11 28 3.2 4.8 0.00 0.00 0.00 57 1017.5
20260503034024 11 21 1.6 4.8 0.00 0.00 0.00 56 1017.4
20260503033543 11 90 1.6 4.8 0.00 0.00 0.00 56 1017.4
20260503033021 11 110 1.6 6.4 0.00 0.00 0.00 56 1017.3
20260503032519 11 53 1.6 4.8 0.00 0.00 0.00 56 1017.4
20260503032017 11 23 3.2 12.9 0.00 0.00 0.00 56 1017.3
20260503031515 11 56 1.6 4.8 0.00 0.00 0.00 56 1017.4
20260503031054 11 51 1.6 6.4 0.00 0.00 0.00 56 1017.3
20260503030532 11 12 4.8 11.3 0.00 0.00 0.00 55 1017.3
20260503030031 11 19 3.2 9.7 0.00 0.00 0.00 55 1017.3
20260503025529 11 26 3.2 11.3 0.00 0.00 0.00 55 1017.2
20260503025027 11 352 3.2 9.7 0.00 0.00 0.00 55 1017.3
20260503024605 11 11 3.2 6.4 0.00 0.00 0.00 54 1017.1
20260503024024 11 37 3.2 6.4 0.00 0.00 0.00 54 1017.0
20260503023021 11 14 3.2 6.4 0.00 0.00 0.00 54 1017.1
20260503022539 11 17 1.6 4.8 0.00 0.00 0.00 54 1016.9
20260503022017 11 32 3.2 11.3 0.00 0.00 0.00 54 1016.9
20260503021535 11 40 1.6 4.8 0.00 0.00 0.00 55 1016.9
20260503021034 11 71 1.6 6.4 0.00 0.00 0.00 54 1016.7
20260503020532 11 34 3.2 9.7 0.00 0.00 0.00 54 1016.8
20260503020030 11 10 3.2 9.7 0.00 0.00 0.00 54 1016.7
20260503015528 11 358 3.2 6.4 0.00 0.00 0.00 54 1016.6
20260503015027 11 15 3.2 6.4 0.00 0.00 0.00 54 1016.5
20260503014545 11 62 3.2 4.8 0.00 0.00 0.00 54 1016.3
20260503014043 11 70 1.6 4.8 0.00 0.00 0.00 54 1016.4
20260503013522 11 164 1.6 4.8 0.00 0.00 0.00 54 1016.3
20260503013020 11 78 1.6 4.8 0.00 0.00 0.00 54 1016.3
20260503012518 11 49 1.6 4.8 0.00 0.00 0.00 54 1016.3
20260503012016 11 39 1.6 3.2 0.00 0.00 0.00 53 1016.1
20260503011555 11 73 1.6 3.2 0.00 0.00 0.00 54 1016.1
20260503011033 11 99 1.6 4.8 0.00 0.00 0.00 54 1016.0
20260503010531 11 74 1.6 4.8 0.00 0.00 0.00 54 1016.0
20260503010030 11 98 1.6 6.4 0.00 0.00 0.00 54 1015.9
20260503005528 11 103 1.6 4.8 0.00 0.00 0.00 53 1015.9
20260503005026 11 96 1.6 6.4 0.00 0.00 0.00 53 1015.8
20260503004525 12 98 1.6 6.4 0.00 0.00 0.00 52 1015.6
20260503004023 12 128 0.0 1.6 0.00 0.00 0.00 52 1015.6
20260503003521 12 35 1.6 4.8 0.00 0.00 0.00 51 1015.5
20260503003040 12 100 1.6 3.2 0.00 0.00 0.00 51 1015.5
20260503002518 12 97 1.6 3.2 0.00 0.00 0.00 50 1015.5
20260503002016 12 113 1.6 6.4 0.00 0.00 0.00 49 1015.3
20260503001535 12 127 1.6 4.8 0.00 0.00 0.00 48 1015.3
20260503001033 13 45 1.6 6.4 0.00 0.00 0.00 47 1015.2
20260503000531 13 5 3.2 9.7 0.00 0.00 0.00 47 1015.1
20260503000049 13 56 1.6 4.8 0.00 0.00 0.00 45 1015.0
20260502235548 13 39 3.2 9.7 0.00 0.00 0.00 44 1015.0
20260502235026 13 14 3.2 11.3 0.00 0.00 0.00 43 1014.8
20260502234524 14 30 3.2 4.8 0.00 0.00 0.00 43 1014.8
20260502234022 14 37 3.2 11.3 0.00 0.00 0.00 43 1014.8
20260502233520 14 25 4.8 9.7 0.00 0.00 0.00 42 1014.8
20260502233019 14 6 3.2 4.8 0.00 0.00 0.00 42 1014.7
20260502232517 15 22 4.8 12.9 0.00 0.00 0.00 41 1014.7
20260502232035 15 14 3.2 11.3 0.00 0.00 0.00 42 1014.7
20260502231534 15 63 1.6 6.4 0.00 0.00 0.00 42 1014.7
20260502231032 15 28 3.2 9.7 0.00 0.00 0.00 42 1014.7
20260502230530 15 21 3.2 9.7 0.00 0.00 0.00 41 1014.6
20260502230028 15 16 1.6 6.4 0.00 0.00 0.00 42 1014.7
20260502225527 15 354 4.8 12.9 0.00 0.00 0.00 41 1014.7
20260502225026 15 12 3.2 11.3 0.00 0.00 0.00 41 1014.6
20260502224523 16 11 4.8 16.1 0.00 0.00 0.00 39 1014.6
20260502224022 16 28 3.2 9.7 0.00 0.00 0.00 39 1014.6